Orbital Elements at Epoch 2459000.5 (2020-May-31.0) TDB
Reference: JPL 16 (heliocentric ecliptic J2000)
Element | Value | Uncertainty (1-sigma) | Units |
e | .08975994938696939 | 4.8389e-08 | |
a | 2.574570301363401 | 1.9057e-08 | au |
q | 2.343477001419828 | 1.2441e-07 | au |
i | 11.53071946283062 | 5.3125e-06 | deg |
node | 52.20765499180336 | 2.6178e-05 | deg |
peri | 209.8374951373289 | 4.9935e-05 | deg |
M | 348.5443947726345 | 4.531e-05 | deg |
tp | 2459048.514354856747 (2020-Jul-18.01435486) | 0.00018988 | TDB |
period | 1508.882979586055 4.13 | 1.6753e-05 4.587e-08 | d yr |
n | .2385870904970788 | 2.6491e-09 | deg/d |
Q | 2.805663601306975 | 2.0768e-08 | au |
|
| | Orbit Determination Parameters
Additional Information
|